Tracking 25193 objects as of 18-Jan-2022
HD Live streaming from Space Station
objects crossing your sky now

AMC-8 (GE-8)

Track AMC-8 (GE-8) now!
AMC-8 (GE-8) is classified as:


NORAD ID: 26639
Int'l Code: 2000-081B
Perigee: 35,782.6 km
Apogee: 35,805.3 km
Inclination: 2.1 °
Period: 1,436.1 minutes
Semi major axis: 42164 km
RCS: 25.1189 m2 (large)
Launch date: December 20, 2000
Source: SOCIETE EUROPEENNE DES SATELLITES (SES)
Launch site: FRENCH GUIANA (FRGUI)

Cable television and radio programming; 24 C-band; CONUS, Alaska, Hawaii, Caribbean
aabbcc
Your satellite tracking list
Your tracking list is empty




NASA's NSSDC Master Catalog

Two Line Element Set (TLE):
1 26639U 00081B   22017.59046839  .00000099  00000-0  00000-0 0  9999
2 26639   2.0701  90.2265 0002693 207.9668 256.3266  1.00271150 77179
Source of the keplerian elements: AFSPC